[[{"header":{"parameterUnit":"m.s-1","parameterCategory":1,"la1":30.2991,"la2":30.254,"lo1":-89.0895,"lo2":-89.0444,"dy":0.0017,"dx":0.0017,"nx":28,"ny":28,"refTime":"2024-05-25T21:00:00:Z","depth":0,"parameterNumber":2,"parameterNumberName":"U-component_of_WINDS"},"data":[0,0,0,0,0,0,0,0,0,0,0,0,0,0,0,0,0,0,0,0,0,0,0,0,0,0,0,0,0,0,0,0,0,0,0,0,0,0,0,0,0,0,0,0,0,0,0,0,0,0,0,0,0,0,0,0,0,0,2.5761,2.5762,0,2.5883,2.5884,2.5885,2.5897,2.5895,2.5894,2.5893,2.6019,2.6024,2.6028,0,0,0,0,0,0,0,0,0,0,0,0,0,2.554,2.5544,2.5761,2.5762,2.5764,2.5882,2.5884,2.5886,2.5897,2.5895,2.5894,2.5892,2.6018,2.6023,2.6029,0,0,0,0,0,0,0,0,0,0,0,0,0,2.5646,2.5545,2.5761,2.5784,2.5787,2.5882,2.5884,2.5886,2.5897,2.5895,2.5893,2.5892,2.6016,2.6023,2.6029,2.611,0,0,2.605,2.6053,0,0,0,0,0,0,0,0,2.564,2.5654,2.5779,2.5782,2.5786,2.5872,2.5853,2.5961,2.5898,2.5855,2.5893,2.5891,2.5972,2.5982,2.601,2.6116,2.6122,2.6051,2.6055,2.6058,2.606,0,0,0,0,0,0,0,2.5633,2.5649,2.5809,2.5781,2.5785,2.5789,2.5802,2.5873,2.5923,2.5859,2.586,2.5874,2.5974,2.6003,2.6013,2.6124,2.6051,2.6057,2.6061,2.6064,2.6304,2.6306,0,0,0,0,0,0,2.5621,2.5643,2.5805,2.5813,2.5707,2.5794,2.5809,2.5847,2.5922,2.5932,2.5876,2.5874,2.5992,2.6005,2.6017,2.6117,2.6058,2.6064,2.6068,2.6301,2.6304,2.6307,0,0,0,0,0,0,2.5616,2.5635,2.58,2.5728,2.575,2.58,2.5843,2.585,2.5879,2.5935,2.5944,2.5896,2.5991,2.6007,2.6087,2.6122,2.6067,2.6074,2.6299,2.6302,2.6305,2.6318,0,0,0,0,0,0,2.561,2.5633,2.5664,2.5729,2.5753,2.5868,2.5845,2.5854,2.5891,2.589,2.5957,2.5966,2.5991,2.6077,2.6094,2.613,2.6079,2.6296,2.63,2.6304,2.6315,2.6322,2.6327,0,0,0,0,0,2.5602,2.5663,2.5666,2.5685,2.5793,2.587,2.5884,2.5911,2.5894,2.5925,2.5961,2.5964,2.6115,2.6085,2.6104,2.6143,2.6294,2.6299,2.6304,2.6312,2.632,2.6327,0,0,0,0,0,0,2.5602,2.5672,2.5676,2.576,2.5809,2.5871,2.5912,2.5918,2.5974,2.5971,2.6002,2.6017,2.6096,2.6128,2.6093,2.6226,2.6203,2.6212,2.6202,2.6211,2.6217,2.6208,2.6085,0,0,0,0,0,2.5611,2.5667,2.5726,2.5795,2.5819,2.5861,2.5896,2.5912,2.5965,2.5985,2.6027,2.6078,2.6137,2.6176,2.6233,2.6319,2.6335,2.6356,2.6362,2.6367,2.6375,2.6423,2.6434,2.6323,2.6323,2.6323,0,0,2.5632,2.5678,2.5711,2.5796,2.5836,2.5894,2.5879,2.5941,2.5984,2.5995,2.6073,2.6105,2.6164,2.6248,2.6287,2.6277,2.6408,2.6373,2.6377,2.6382,2.643,2.644,2.6449,2.6327,2.6326,2.6326,0,0,2.57,2.5739,2.5801,2.5841,2.5902,2.593,2.5944,2.6007,2.6029,2.6107,2.6116,2.6169,2.627,2.6312,2.6347,2.643,2.6435,2.6448,2.6481,2.6528,2.6537,2.6545,2.6575,2.6586,2.6456,2.6456,2.6456,0,2.5718,2.5805,2.5832,2.5894,2.5931,2.5943,2.6007,2.6045,2.6121,2.6147,2.6134,2.6262,2.6302,2.6396,2.6416,2.6444,2.6462,2.6441,2.6533,2.6541,2.6549,2.6579,2.659,2.6457,2.6457,2.6457,2.6457,0,2.5825,2.5885,2.5928,2.6001,2.6043,2.6106,2.6143,2.6182,2.6195,2.6224,2.6305,2.6354,2.6422,2.6445,2.6458,2.6541,2.6533,2.6527,2.6504,2.656,2.6589,2.66,2.6459,2.6458,2.6458,2.6458,0,0,2.5895,2.5983,2.5998,2.6032,2.61,2.6147,2.621,2.6276,2.631,2.6362,2.6417,2.6502,2.6496,2.6536,2.6554,2.6595,2.6659,2.6584,2.6586,2.6597,2.6754,2.6759,2.6771,2.6663,2.6665,2.6667,2.6749,0,2.5971,2.6083,2.611,2.6206,2.6263,2.6275,2.633,2.6378,2.6408,2.646,2.6493,2.6553,2.6541,2.6565,2.6606,2.6643,2.6691,2.6637,2.6714,2.6716,2.6699,2.6786,2.6791,2.6866,2.676,2.6762,2.6764,0,2.6074,2.6128,2.623,2.6291,2.6316,2.6365,2.6428,2.6478,2.6533,2.6552,2.6595,2.661,2.6677,2.665,2.6743,2.6706,2.6739,2.6762,2.6765,2.6774,2.6744,2.6797,2.6891,2.6903,2.6781,2.678,2.6779,0,2.6116,2.6214,2.6289,2.6317,2.639,2.6424,2.6456,2.6509,2.6547,2.6603,2.6628,2.669,2.6724,2.6773,2.6804,2.6782,2.6895,2.6871,2.6912,2.6912,2.6936,2.6934,2.7037,2.6956,2.6956,2.6956,2.6956,0,2.6197,2.6259,2.6308,2.6354,2.6424,2.6454,2.6523,2.6555,2.6602,2.6655,2.667,2.6719,2.6757,2.6811,2.6836,2.691,2.6925,2.6942,2.6948,2.6941,2.6939,2.6963,2.6959,2.6959,2.6958,2.6958,2.6957,0,2.6256,2.6291,2.6372,2.6435,2.6452,2.6501,2.6555,2.66,2.663,2.6696,2.6713,2.676,2.6825,2.6861,2.6943,2.6959,2.7042,2.7045,2.7023,2.7026,2.7065,2.7061,2.7188,2.7206,2.7113,2.7114,2.7115,0,2.6305,2.6353,2.6421,2.6457,2.649,2.6548,2.6587,2.6619,2.6659,2.6726,2.6763,2.6829,2.6883,2.6986,2.7028,2.7091,2.7096,2.7136,2.7105,2.7097,2.7097,2.7094,2.7099,2.7141,2.7142,2.7142,2.7143,0,2.639,2.6405,2.6461,2.6523,2.6569,2.662,2.667,2.6699,2.6739,2.6783,2.685,2.6892,2.6975,2.7041,2.7107,2.714,2.7149,2.7152,2.7165,2.7159,2.7144,2.7153,2.7038,2.7149,2.7149,2.7148,2.7148,2.7148,2.6446,2.649,2.6544,2.6606,2.6647,2.6694,2.6739,2.6775,2.683,2.6901,2.6916,2.6986,2.7041,2.7131,2.7166,2.7222,2.7214,2.7233,2.7238,2.7242,2.7244,2.7135,2.7234,2.7234,2.7234,2.7234,2.7234,0,2.6532,2.6568,2.6624,2.6694,2.6743,2.6746,2.6802,2.6842,2.6904,2.6954,2.7007,2.7084,2.7147,2.7194,2.7259,2.7295,2.7301,2.7311,2.7309,2.7317,2.7247,2.7229,2.7306,2.7306,2.7306,2.7306,2.7306,2.7306,2.6582,2.6656,2.6678,2.6773,2.6809,2.6877,2.6909,2.6952,2.6993,2.7077,2.713,2.716,2.721,2.7278,2.7337,2.7349,2.7373,2.7383,2.7396,2.7329,2.7322,2.7314,2.7298,2.7388,2.7388,2.7461,2.7462,2.7462]},{"header":{"parameterUnit":"m.s-1","parameterCategory":1,"la1":30.2991,"la2":30.254,"lo1":-89.0895,"lo2":-89.0444,"dy":0.0017,"dx":0.0017,"nx":28,"ny":28,"refTime":"2024-05-25T21:00:00:Z","depth":0,"parameterNumber":3,"parameterNumberName":"V-component_of_WINDS"},"data":[0,0,0,0,0,0,0,0,0,0,0,0,0,0,0,0,0,0,0,0,0,0,0,0,0,0,0,0,0,0,0,0,0,0,0,0,0,0,0,0,0,0,0,0,0,0,0,0,0,0,0,0,0,0,0,0,0,0,5.1034,5.1036,0,5.1181,5.1183,5.1185,5.1219,5.1218,5.1217,5.1216,5.136,5.1365,5.137,0,0,0,0,0,0,0,0,0,0,0,0,0,5.0778,5.0782,5.1034,5.1036,5.1038,5.1181,5.1183,5.1185,5.1219,5.1218,5.1217,5.1216,5.1359,5.1364,5.137,0,0,0,0,0,0,0,0,0,0,0,0,0,5.0903,5.0784,5.1034,5.1072,5.1077,5.1181,5.1183,5.1186,5.1219,5.1218,5.1216,5.1215,5.1357,5.1364,5.1371,5.1445,0,0,5.1393,5.1396,0,0,0,0,0,0,0,0,5.0896,5.0913,5.1065,5.107,5.1076,5.118,5.1146,5.1272,5.122,5.1165,5.1216,5.1214,5.1301,5.1313,5.1344,5.1451,5.1458,5.1393,5.1398,5.1401,5.1403,0,0,0,0,0,0,0,5.0887,5.0906,5.1092,5.1067,5.1074,5.1081,5.1097,5.117,5.1239,5.117,5.1173,5.119,5.1304,5.1337,5.1347,5.146,5.1393,5.14,5.1404,5.1407,5.1636,5.1638,0,0,0,0,0,0,5.0873,5.0899,5.1088,5.1097,5.0981,5.1086,5.1104,5.1148,5.1239,5.1251,5.1191,5.1191,5.1325,5.1339,5.1352,5.1446,5.1401,5.1407,5.1412,5.1635,5.1637,5.1639,0,0,0,0,0,0,5.0867,5.0889,5.1082,5.0999,5.1024,5.1092,5.1141,5.1152,5.1185,5.1255,5.1267,5.1212,5.1324,5.1342,5.1422,5.1451,5.1411,5.1417,5.1632,5.1635,5.1638,5.1632,0,0,0,0,0,0,5.086,5.0887,5.0917,5.0999,5.1028,5.1151,5.1143,5.1156,5.1198,5.1199,5.1278,5.1289,5.1325,5.1411,5.1429,5.146,5.1423,5.163,5.1634,5.1637,5.163,5.1635,5.1638,0,0,0,0,0,5.085,5.0908,5.0918,5.0941,5.1067,5.1152,5.1169,5.121,5.12,5.123,5.1275,5.1287,5.1445,5.1419,5.144,5.1473,5.1628,5.1633,5.1637,5.1629,5.1634,5.1638,0,0,0,0,0,0,5.0825,5.0919,5.0932,5.1018,5.1077,5.1158,5.1197,5.1214,5.1275,5.1273,5.132,5.1337,5.1414,5.1452,5.1421,5.155,5.1536,5.1545,5.1523,5.1529,5.1533,5.1522,5.1429,0,0,0,0,0,5.083,5.0893,5.0971,5.104,5.1069,5.1128,5.1166,5.1193,5.1255,5.128,5.1331,5.1389,5.1452,5.1492,5.1554,5.1636,5.1653,5.1669,5.1673,5.1676,5.1682,5.1729,5.1737,5.1652,5.1652,5.1652,0,0,5.084,5.0899,5.0936,5.1036,5.1085,5.1148,5.1148,5.1214,5.1261,5.1289,5.1369,5.1408,5.1476,5.1557,5.1596,5.1591,5.171,5.1681,5.1683,5.1688,5.1734,5.1742,5.175,5.1655,5.1654,5.1654,0,0,5.089,5.0942,5.1005,5.1055,5.113,5.1169,5.1184,5.1262,5.129,5.1371,5.1394,5.1449,5.1556,5.1604,5.1642,5.1712,5.1725,5.173,5.1751,5.1797,5.1803,5.181,5.1835,5.1844,5.1737,5.1737,5.1737,0,5.0893,5.0991,5.1035,5.1101,5.1145,5.1175,5.1239,5.1284,5.1374,5.1403,5.1396,5.1532,5.158,5.1674,5.1691,5.1721,5.1739,5.1722,5.1799,5.1806,5.1812,5.1837,5.1847,5.1737,5.1737,5.1737,5.1737,0,5.099,5.1057,5.1099,5.1189,5.1237,5.1301,5.1354,5.1397,5.1419,5.1458,5.154,5.1599,5.1673,5.1697,5.1719,5.1794,5.1789,5.179,5.1778,5.182,5.1844,5.1854,5.1737,5.1737,5.1737,5.1737,0,0,5.1029,5.1143,5.1158,5.1199,5.1285,5.1336,5.1402,5.1477,5.1513,5.1574,5.163,5.172,5.1723,5.1766,5.1793,5.1832,5.1885,5.1829,5.1831,5.1838,5.1973,5.1972,5.1983,5.1894,5.1896,5.1898,5.1967,0,5.1091,5.1212,5.1254,5.1353,5.1416,5.1445,5.1502,5.156,5.1598,5.1656,5.1697,5.1761,5.1758,5.1785,5.1825,5.187,5.1913,5.1866,5.1946,5.1948,5.1929,5.1995,5.1995,5.2058,5.1977,5.1979,5.198,0,5.1179,5.1245,5.1351,5.1429,5.1457,5.1508,5.1581,5.1636,5.1701,5.1726,5.1775,5.18,5.1868,5.1851,5.1945,5.1912,5.1947,5.1974,5.1978,5.1988,5.1967,5.2008,5.2079,5.2089,5.1995,5.1994,5.1993,0,5.1199,5.1312,5.1391,5.1425,5.1518,5.1554,5.1594,5.1658,5.1701,5.1764,5.1792,5.186,5.1898,5.195,5.1993,5.1976,5.2083,5.2069,5.2106,5.2105,5.2128,5.2126,5.2207,5.2148,5.2148,5.2148,5.2148,0,5.1264,5.1328,5.1401,5.145,5.1522,5.1569,5.1639,5.168,5.1737,5.1793,5.1821,5.1873,5.1925,5.1983,5.2016,5.209,5.2106,5.2127,5.2136,5.2126,5.2123,5.215,5.2147,5.2151,5.215,5.215,5.2149,0,5.1298,5.135,5.1438,5.152,5.1542,5.1591,5.166,5.1708,5.1747,5.1818,5.1837,5.1899,5.1968,5.2016,5.2104,5.2126,5.2206,5.2213,5.2185,5.219,5.2224,5.222,5.2325,5.2342,5.2271,5.2272,5.2272,0,5.1337,5.1388,5.1475,5.1516,5.1557,5.1622,5.1667,5.1714,5.1759,5.1838,5.1876,5.1948,5.2009,5.2118,5.217,5.2238,5.2247,5.2279,5.2257,5.2246,5.2249,5.2246,5.2252,5.2283,5.2283,5.2284,5.2284,0,5.1401,5.1425,5.1489,5.1563,5.1616,5.1676,5.1736,5.1767,5.1825,5.1873,5.1947,5.1994,5.2085,5.2156,5.223,5.2269,5.2286,5.2291,5.2303,5.2294,5.2276,5.2287,5.2196,5.2288,5.2288,5.2287,5.2287,5.2287,5.144,5.1487,5.1557,5.1628,5.1678,5.1733,5.1783,5.183,5.1892,5.1972,5.1996,5.2072,5.2136,5.2236,5.2277,5.2336,5.2333,5.235,5.2355,5.2359,5.2359,5.2266,5.2349,5.2349,5.2349,5.2349,5.2349,0,5.1507,5.1554,5.1618,5.1703,5.1758,5.1772,5.1839,5.1884,5.1951,5.2011,5.207,5.2154,5.2224,5.2281,5.2353,5.2389,5.2399,5.2406,5.2404,5.2413,5.2357,5.234,5.2397,5.2397,5.2397,5.2397,5.2397,5.2397,5.1548,5.1629,5.166,5.1765,5.1811,5.1888,5.1925,5.1976,5.2024,5.2118,5.2176,5.2214,5.2273,5.2349,5.2413,5.2428,5.2453,5.2459,5.2475,5.2422,5.2417,5.2412,5.2396,5.2464,5.2464,5.2527,5.2527,5.2528]}]]